STARLINK-1676, 46556

Orbit data source: Space-Track

STARLINK-1676, 46556 is a payload satellite owned by SpaceX/Seattle (US) in LEO that was launched on Tue, 06 Oct 2020 UTC via an FALCON 9 launch vehicle from the Air Force Eastern Test Range (AFETR). Payload-class satellites include a variety of spacecraft equipped with specific instruments for various scientific and technological missions. These include communications satellites like Starlink; space stations such as the ISS; scientific satellites like the Hubble; Earth observation satellites from companies like Planet Labs, Umbra, and HawkEye 360; GPS; miniature CubeSats for education and research; and military/defense satellites.

Loading next visibility...
Identifier
46556, 2020-070AA
Orbit
LEO
Last TLE update
2 days ago
Origin
Manufacturer
SpaceX/Seattle
Mission
Operational Commercial Communications
Bus & Motor
STARLINK, Unknown motor
Mass
260 kg wet, ~248 kg dry
Launch date (UTC)
2020-10-06 (5 years ago)
Launch vehicle
FALCON 9
Launch site
Air Force Eastern Test Range (AFETR)
Object type
Payload
Rocket body
Debris
Shape & HBR
Box + 1 Pan, 8.86 m
Radar Cross Section
13.562 m², Large (>1 m²)

Expand to show TLE details & history

TLE from 2 days ago
0 STARLINK-1676
1 46556U 20070AA  25118.79766489  .00004576  00000-0  32594-3 0  9996
2 46556  53.0528 150.2168 0001272  78.4352 281.6780 15.06397614252042
Epoch: 2025-04-28T19:08Z
Definitive object data (Epoch: 2025-04-28T19:08:38.246Z)
Latitude
Longitude
6.05092°
Altitude
547.92 km
Speed
7.589 km/s
True Right ascension
10h 00m 52s
True Declination
0° 00' 00"
Sunlit
Object was in partial shadow at TLE epoch
Visualization TLE readout
Latitude
53.10854°
Longitude
90.90992°
Altitude
552.81 km
Speed
7.592 km/s
Apparent Right ascension
17h 52m 02s
Apparent Declination
10° 28' 11"
Sunlit
Object is in daylight
Visualization observer readout
Local Sidereal Time
07:42:16
Azimuth
33.069° NE
Elevation
-33.506°
Doppler factor
1
Orbital elements
Apogee altitude
548.371 km
Perigee altitude
546.609 km
Semi-major axis
6,925.627 km
Eccentricity
0.0001272
Inclination
53.0528°
RAAN
150.2168°
Arg. of periapsis
78.4352°
True anomaly
281.66373°
Mean anomaly
281.678°
Eccentric anomaly
281.67086°
Mean motion
3.76578 °/min
BSTAR
0.00032594
Orbital period
95.6 mins
Loading maneuver chart data...
Loading SW <> Apogee altitude chart data...
Loading historical data...
Loading historical data...
Loading historical data...
Loading historical data...
Loading historical data...
Loading historical data...
Loading historical data...

STARLINK-1676 Visibility forecast

Observer location: undefined°, undefined°

Span
Click to sort rows by Start time (UTC) header in descending order
Start Az.
Max El. time (UTC)
Max El. Az.
Max El.
End time (UTC)
End Az.
6 mins2025-05-01 03:01:01.707Z176.203° S2025-05-01 03:04:01.707Z128.016° SE19.338°2025-05-01 03:07:01.707Z80.042° E
6 mins2025-05-01 04:41:01.707Z254.721° W2025-05-01 04:43:01.707Z310.391° NW39.181°2025-05-01 04:47:01.707Z42.572° NE
4 mins2025-05-01 06:22:01.707Z318.607° NNW2025-05-01 06:23:01.707Z335.584° NNW16.062°2025-05-01 06:26:01.707Z23.856° NE
5 mins2025-05-01 09:43:01.707Z343.468° N2025-05-01 09:45:01.707Z27.406° NE24.803°2025-05-01 09:48:01.707Z82.444° E
6 mins2025-05-01 11:22:01.707Z296.191° NW2025-05-01 11:25:01.707Z205.174° SW38.456°2025-05-01 11:28:01.707Z149.671° SSE
|